Theta_e
336 342 349 349 349 349 347 347 347 347 345 344 343 340 340 340 339 339 338 341 340 338 336 335 335 336 334 336 337 337 338 338 339 340 340 340 339 337 336 335 333 329 333
339 344 347 349 349 348 347 346 347 346 345 343 340 341 342 342 340 338 338 339 337 337 336 335 335 335 335 335 336 337 338 339 338 336 337 336 335 333 334 333 332 328 331
341 344 345 348 349 348 347 345 344 343 340 338 339 337 340 342 341 339 338 339 339 336 334 335 335 335 335 335 335 336 337 338 337 337 334 329 328 331 331 330 330 330 330
342 343 344 345 348 347 345 345 344 342 340 337 336 336 340 338 337 338 337 337 338 337 335 333 334 334 334 334 334 335 338 338 336 334 328 326 324 329 330 329 329 329 329
340 342 343 345 347 346 345 344 343 342 340 336 335 335 337 340 338 340 338 336 337 335 333 333 333 333 332 332 332 336 338 335 334 329 324 323 323 327 328 327 327 327 327
338 341 342 346 347 346 345 343 341 341 338 337 336 335 336 338 337 339 339 338 335 334 333 333 332 331 330 330 333 335 336 334 329 324 325 325 321 327 327 326 326 326 326
337 340 342 344 346 346 345 343 342 341 340 339 338 336 337 339 338 338 338 337 336 333 332 332 331 330 330 329 331 332 331 332 326 323 319 319 321 326 326 325 325 325 325
337 340 341 338 341 343 344 343 342 342 340 339 339 337 335 338 338 337 338 337 334 334 333 332 330 329 329 328 329 329 329 329 324 319 319 318 326 325 325 324 324 324 324
338 338 338 338 338 336 339 340 341 341 340 339 339 337 335 336 337 337 336 337 334 333 333 332 330 329 328 327 326 327 327 326 319 319 320 318 328 325 324 324 323 323 322
336 336 336 336 336 336 336 333 335 337 337 338 336 334 332 331 332 333 330 333 332 333 335 333 332 330 328 326 325 326 325 323 318 319 319 321 326 325 323 323 322 322 321
334 335 335 335 335 335 335 333 330 332 333 333 331 328 326 326 327 326 326 329 331 332 333 332 331 331 330 326 325 324 322 317 319 318 319 327 326 324 323 322 321 321 320
330 332 334 334 333 333 336 334 332 333 331 330 328 326 325 324 323 324 321 325 329 328 333 331 331 330 326 318 316 319 317 316 318 318 319 327 326 325 323 322 321 321 320
327 330 332 333 333 332 333 331 330 330 329 328 326 325 324 323 320 321 320 321 322 323 324 326 324 321 320 318 317 316 317 316 316 317 320 326 326 326 324 323 322 321 320
325 327 328 333 331 331 331 330 331 331 329 327 326 325 323 320 319 318 319 319 319 320 319 318 317 318 317 317 318 317 317 315 313 315 316 322 327 326 325 324 322 321 320
324 326 325 326 329 328 328 329 329 330 330 329 327 327 324 321 319 319 320 319 318 318 318 316 316 316 316 316 317 317 317 314 313 314 314 317 323 326 326 326 324 323 322
325 325 327 324 325 325 326 327 329 331 331 330 329 328 327 323 321 320 320 320 319 319 318 317 317 316 316 317 317 317 317 315 313 313 313 313 320 325 326 326 325 324 324
327 327 327 326 324 324 324 325 328 331 332 330 330 329 328 324 321 321 319 319 320 318 317 316 315 316 315 316 316 317 318 318 315 313 312 312 314 320 324 326 326 326 325
327 327 328 329 326 325 325 325 325 327 330 331 330 329 327 326 322 320 320 318 319 318 318 315 315 314 314 315 314 315 316 317 316 315 313 313 312 315 319 325 326 326 325
327 327 327 328 327 326 326 326 326 325 326 328 329 328 327 327 325 323 320 320 317 317 317 317 314 314 313 313 314 314 316 317 317 317 315 312 312 313 313 317 321 322 325
326 328 327 327 327 327 327 326 326 326 326 325 326 327 327 327 327 325 323 319 318 316 316 314 313 313 313 315 316 316 315 317 317 315 314 313 312 313 312 312 312 314 319
323 325 327 326 327 327 326 325 326 325 325 326 327 326 326 326 326 325 325 321 318 316 316 315 314 313 313 313 312 312 315 315 314 316 317 314 312 311 311 311 310 310 312
320 324 326 327 327 327 328 328 328 328 328 328 328 327 327 326 325 325 325 323 320 318 315 314 314 313 314 315 312 309 310 311 314 316 316 315 313 312 310 310 310 309 309
311 318 323 325 326 327 328 327 326 326 326 325 327 327 327 327 326 325 325 324 322 321 319 316 315 314 313 313 316 312 306 305 306 311 314 314 314 310 312 311 309 309 308
304 312 318 321 322 325 327 325 325 325 324 326 327 328 328 327 327 326 325 324 323 322 321 320 318 316 315 313 312 317 316 308 305 304 307 307 310 311 311 312 310 308 307
302 302 305 312 318 321 323 326 325 324 327 328 328 327 328 328 327 326 325 325 323 323 322 321 320 318 317 316 315 313 315 316 312 308 306 308 304 308 312 312 311 308 307
300 300 300 301 303 306 311 319 322 324 325 326 326 327 327 327 328 326 326 324 324 323 322 322 322 321 319 319 319 317 315 312 313 311 309 310 308 308 307 310 308 308 308
Wind_Speed
3 5 10 11 13 13 14 13 14 13 12 13 13 12 11 12 16 14 10 12 14 15 13 13 13 13 13 12 12 11 11 11 12 14 19 19 19 16 16 16 14 8 16
9 6 10 12 12 14 13 11 11 10 10 13 11 11 10 13 15 14 14 11 12 13 13 12 12 11 12 11 9 9 10 11 17 12 17 17 16 13 14 14 14 12 14
11 7 7 11 13 13 12 11 11 11 11 11 11 10 9 13 14 14 14 11 12 12 11 12 11 11 11 10 8 9 7 7 13 12 12 7 8 12 12 12 12 13 14
11 8 6 11 12 13 12 12 12 12 12 11 11 9 10 11 11 12 14 11 12 12 11 11 10 10 9 8 7 7 8 16 13 9 5 8 7 11 12 12 12 12 13
9 9 7 11 12 13 12 12 12 12 12 12 11 10 10 14 12 13 13 12 10 12 10 10 9 8 8 7 6 8 15 14 12 8 6 6 4 8 11 11 11 11 10
9 9 10 11 13 13 12 12 12 11 13 13 12 9 10 11 12 12 12 12 9 11 10 9 8 7 7 7 7 9 9 11 7 6 7 8 4 8 10 10 10 10 10
7 7 9 11 12 13 13 12 12 11 11 11 12 11 10 10 11 11 11 11 10 8 9 8 7 6 6 6 6 7 7 4 3 5 6 5 4 8 9 9 9 9 10
11 8 7 10 10 10 11 12 12 11 11 11 9 11 8 6 10 9 9 12 11 10 8 7 6 5 5 5 5 5 6 5 5 6 6 4 6 7 8 8 8 8 8
11 10 7 7 7 10 10 10 10 10 10 11 10 11 10 6 7 7 3 7 9 10 9 7 6 4 2 3 4 4 6 3 6 4 4 3 6 6 7 7 7 7 7
9 10 9 8 7 5 6 9 9 10 10 10 10 9 8 8 7 8 8 6 10 8 8 8 6 4 2 1 1 3 6 4 5 3 4 4 7 6 6 6 6 6 6
6 9 9 9 8 7 6 6 8 9 10 10 8 8 6 3 4 6 6 8 10 9 7 7 6 6 5 4 4 4 4 2 4 3 2 9 8 7 7 6 6 6 6
8 7 10 10 10 9 7 7 6 5 4 5 5 6 4 5 4 4 5 7 8 11 9 8 6 5 5 2 2 5 1 2 3 4 3 9 9 8 7 7 7 7 6
7 7 9 10 9 10 8 6 4 3 3 4 6 6 5 4 3 3 2 2 2 6 3 5 3 3 4 3 3 3 3 3 3 3 4 9 9 9 9 9 8 8 7
6 8 10 10 9 9 6 6 7 6 6 5 6 8 5 3 4 4 3 4 4 3 4 4 3 4 5 5 6 5 5 4 3 3 4 8 10 11 11 10 9 9 9
8 7 7 10 11 10 9 6 7 8 7 8 6 8 6 5 5 4 5 4 4 4 4 4 4 4 5 5 5 5 6 6 6 3 3 9 10 12 12 12 12 11 11
9 8 7 7 10 9 10 10 8 7 8 8 8 8 10 7 6 6 6 6 5 6 6 6 6 5 5 5 6 6 6 5 6 6 4 5 11 13 15 14 13 13 13
13 11 10 8 8 11 11 10 8 8 8 8 9 10 10 10 9 9 7 6 6 5 6 5 5 4 4 5 6 6 5 6 6 6 5 5 5 12 13 17 16 15 15
12 16 13 9 9 10 11 9 8 8 8 8 8 8 12 11 10 9 8 8 7 6 6 4 5 5 5 5 5 5 5 5 7 8 6 6 5 5 10 16 17 17 17
13 12 13 11 12 12 10 8 8 9 8 8 8 8 11 12 10 9 8 7 7 6 7 7 6 5 4 5 6 5 6 6 7 7 8 8 8 7 6 11 16 15 17
12 13 12 10 11 9 8 5 5 6 7 6 8 9 11 9 11 10 8 7 7 6 7 5 6 5 4 6 6 6 6 7 6 7 7 6 8 10 8 8 6 8 16
7 10 13 11 13 8 7 8 9 9 6 7 7 10 11 11 11 12 9 8 8 9 10 9 7 9 7 4 2 4 7 7 9 9 8 7 9 10 9 9 6 6 8
13 14 13 14 12 10 9 8 8 7 8 7 8 10 11 14 13 13 12 10 10 8 8 9 10 5 7 7 5 1 5 4 8 10 8 9 11 7 9 11 11 11 9
8 9 12 14 11 9 10 4 3 2 3 4 8 10 12 14 14 14 13 12 11 10 10 11 11 13 10 5 11 6 2 7 1 4 12 10 10 7 9 9 11 11 10
5 4 3 5 5 5 6 6 10 10 11 10 11 9 10 13 15 14 15 14 13 10 12 11 11 12 11 10 3 11 12 3 4 4 2 4 6 8 11 9 9 9 8
6 6 6 4 4 5 5 7 8 10 10 8 8 11 12 11 13 13 14 15 14 11 13 14 12 13 11 12 10 4 11 12 8 7 12 6 2 6 9 9 8 8 9
7 8 8 8 6 7 4 6 8 10 10 9 10 9 9 9 9 13 14 14 14 13 14 13 15 15 15 13 12 11 11 6 12 9 11 14 10 5 7 7 7 7 8
Wind_Direction
193 174 155 146 140 134 129 128 129 127 124 123 117 117 120 122 122 110 99 99 98 92 97 92 90 86 91 84 72 63 60 59 55 67 70 62 59 60 61 63 64 66 76
142 164 158 143 144 139 130 118 106 115 126 111 118 125 124 125 127 118 113 111 107 110 114 95 96 91 89 85 68 51 50 59 88 78 69 62 59 59 63 69 75 76 80
140 149 149 146 141 135 130 119 112 115 114 122 124 138 137 128 116 125 121 110 116 108 113 105 93 92 87 72 52 46 41 76 88 74 78 76 60 65 72 69 76 82 83
140 141 144 146 143 138 135 133 134 133 130 132 140 143 151 129 130 132 125 127 117 121 111 109 105 94 83 76 60 28 59 96 87 72 68 76 59 68 73 79 74 76 78
139 138 144 143 144 144 145 143 142 137 137 136 141 149 157 143 134 143 132 127 135 125 125 117 103 97 87 78 60 39 108 108 101 88 81 72 74 81 83 74 72 78 83
139 140 147 150 148 153 151 149 146 144 143 148 146 158 167 146 135 147 134 141 146 136 130 115 114 97 82 73 60 54 100 103 98 107 89 78 87 88 88 86 88 90 85
132 143 149 152 154 159 159 157 155 156 154 151 150 163 177 152 142 151 143 138 138 144 128 130 116 93 79 71 68 63 59 74 117 86 91 89 82 93 94 94 91 94 94
143 149 151 153 158 166 167 165 167 166 164 156 155 158 185 154 156 151 165 154 149 144 150 141 123 100 77 63 55 50 34 61 107 107 114 101 116 108 102 100 99 98 102
149 150 152 155 164 171 178 179 174 172 171 170 166 163 173 200 168 151 149 163 167 172 167 159 147 130 96 63 55 50 31 110 128 133 130 122 130 118 111 115 113 113 112
161 160 160 161 157 171 176 183 182 176 177 176 172 172 177 191 185 165 173 200 189 165 150 166 173 171 192 308 356 23 35 80 146 145 137 139 141 137 130 132 132 126 132
178 174 167 167 167 166 174 184 188 186 184 179 178 174 176 194 198 189 188 207 197 187 180 182 186 196 200 259 295 327 48 92 142 153 167 149 159 157 155 154 150 151 155
189 194 179 177 176 171 173 175 188 194 190 186 178 184 176 193 203 196 205 209 203 198 174 199 205 206 205 252 307 330 2 124 154 170 181 168 171 173 173 177 175 177 174
203 193 188 185 185 179 182 172 176 183 184 188 187 191 192 184 203 215 212 229 201 182 186 200 204 203 218 227 244 251 260 174 186 193 193 185 186 189 192 194 193 191 191
212 216 186 193 186 194 188 179 182 182 189 190 199 200 180 194 199 205 202 201 199 196 202 213 217 222 225 228 236 248 236 201 189 202 219 205 205 206 205 206 208 205 205
218 225 223 184 196 192 188 185 189 192 191 196 198 202 190 190 196 198 210 194 196 195 203 207 218 225 229 227 236 219 218 209 197 200 210 221 214 221 220 220 217 216 217
221 217 227 222 197 186 188 188 189 194 195 197 203 208 197 192 192 193 202 210 209 203 206 206 208 216 226 225 226 217 219 210 205 199 206 227 227 229 230 231 229 228 225
214 217 207 213 220 198 196 193 191 193 193 202 208 209 208 195 190 190 202 208 210 207 212 210 225 225 225 227 228 220 219 217 212 210 206 211 229 233 229 233 236 234 235
214 209 212 200 209 218 207 199 200 197 198 206 207 211 212 212 192 196 201 207 202 195 202 202 211 220 222 218 221 227 224 223 217 215 203 207 216 221 233 236 240 239 237
217 217 219 200 204 214 219 211 208 205 205 207 207 209 212 213 205 204 212 215 194 201 206 211 217 202 206 222 226 229 230 231 229 221 208 209 214 217 217 231 234 237 241
213 211 216 208 212 206 213 206 218 219 221 213 218 219 215 217 209 206 211 212 198 203 211 204 202 204 202 212 222 231 230 233 235 227 219 212 210 216 214 216 227 234 234
219 213 213 208 212 191 195 208 219 220 214 229 229 224 217 216 210 211 216 209 203 210 217 211 211 214 227 201 206 258 252 237 238 234 220 215 216 213 215 216 213 219 230
218 213 216 214 216 203 202 215 215 209 224 217 223 228 218 217 211 213 214 212 209 216 216 211 211 219 231 187 205 173 264 260 235 229 225 226 225 210 216 216 218 218 221
246 225 219 220 223 218 212 200 192 257 271 214 223 226 226 224 222 217 215 215 211 210 219 216 215 218 230 215 209 193 204 232 305 217 231 228 229 214 230 225 221 221 214
332 277 225 224 220 231 199 200 204 218 229 231 235 235 231 220 224 219 219 215 214 210 219 215 215 219 219 229 222 231 237 169 204 297 271 249 232 231 232 231 225 222 214
33 45 47 26 342 303 269 234 221 229 241 243 240 243 237 232 221 219 214 219 220 217 221 219 213 213 216 227 223 208 230 240 234 252 272 255 255 229 234 233 227 217 215
32 26 22 23 19 10 339 272 253 252 245 249 246 242 240 238 230 222 219 222 221 222 223 223 219 213 215 222 228 225 223 208 227 224 242 253 248 246 224 228 223 217 215